Location: Newark
(39.5667°N, 8.9833°E)
Time: 13:55:52
(UTC+00:00)

LightSail 2 - Pass Details

Date: 30 September 2019
Orbit: 707 x 722 km, 24.0° (Epoch: 22 October)

Event Time Altitude Azimuth Distance (km) Brightness Sun altitude
Exits shadow 03:15:10 10° 171° (S) 2,153 7.5 -24.3°
Drops below altitude 10° 03:15:17 10° 170° (S) 2,166 7.6 -24.3°
Sets 03:19:25 0° 138° (SE) 3,080 8.8 -23.5°
